GEFSNGP_con_prob3kmehi_180.txt.gz
EHI
0 0 0 0 0 0 0 0 0 0 0 0 1 5 8 13 18 20 20 19 18 19 22 25 25 24 24 24 27 28 28 28 29 30 29 25 20 14 10 7 6 6 6 5
0 0 0 0 0 0 0 0 0 0 0 1 4 8 11 13 17 21 21 20 19 20 22 24 24 24 25 26 27 29 30 31 33 34 31 26 20 14 9 7 7 7 8 8
0 0 0 0 0 0 1 1 1 1 2 4 9 12 13 14 18 22 24 23 22 22 23 22 22 23 26 29 30 32 33 33 34 36 35 29 23 17 11 8 8 9 9 8
0 0 0 0 0 0 1 2 2 2 4 8 12 14 14 15 18 22 24 25 24 24 24 23 23 25 29 33 34 36 35 32 31 34 35 31 27 21 14 11 10 9 7 6
0 0 0 0 0 0 1 2 2 3 6 11 14 14 14 15 19 22 24 25 25 27 27 27 28 29 33 38 39 39 36 31 29 30 31 31 27 21 15 12 11 9 6 4
0 0 0 0 0 0 1 2 3 5 9 13 14 14 15 18 23 26 27 25 24 26 28 29 31 33 38 42 43 41 36 31 28 26 26 27 25 20 15 12 10 7 5 4
0 0 0 0 0 1 1 1 4 9 13 15 16 16 19 25 30 32 30 26 24 26 29 31 33 35 39 43 43 40 35 31 27 24 24 24 22 20 17 13 9 6 4 4
0 0 0 0 1 1 0 1 5 10 13 16 18 21 25 30 33 32 28 25 26 28 29 30 32 34 37 39 39 36 31 28 25 23 23 22 19 18 15 12 9 7 5 4
1 1 0 1 1 1 0 1 4 8 11 15 19 23 25 27 27 25 23 23 27 30 28 27 28 31 33 33 33 31 27 24 22 20 21 20 16 13 12 11 11 9 6 5
2 2 2 2 2 2 2 2 4 6 10 16 19 19 20 20 20 19 19 21 26 29 27 25 25 27 27 27 27 27 25 21 19 17 18 17 12 9 9 10 11 9 7 7
2 2 3 3 3 3 4 4 5 6 10 14 16 16 16 16 15 16 17 19 23 25 25 25 24 24 24 22 22 24 23 19 17 16 16 15 11 6 5 6 6 6 5 6
1 1 2 3 4 4 4 4 5 5 8 11 12 13 13 11 11 13 14 16 19 21 21 22 22 21 21 20 20 21 20 16 14 13 13 13 9 5 2 1 1 1 2 3
0 0 1 2 4 4 3 3 3 4 5 7 9 11 10 7 6 7 10 12 14 16 16 18 18 18 18 18 17 18 17 13 10 8 8 8 7 5 3 2 0 0 0 1
0 0 0 1 1 2 2 2 2 2 3 4 6 8 8 7 4 3 5 7 11 12 13 14 13 12 12 13 13 14 13 8 5 5 5 6 6 6 6 4 2 1 0 0
0 0 0 0 0 0 0 0 1 1 1 2 3 4 6 5 2 1 2 5 8 10 11 11 11 10 9 8 8 9 8 5 3 4 6 7 8 7 7 6 5 2 1 0
0 0 0 0 0 0 0 0 0 0 0 1 1 2 3 3 1 0 1 3 6 8 9 9 9 9 8 7 6 5 5 3 2 4 7 9 10 8 8 8 7 4 2 1
0 0 0 0 0 0 0 0 0 0 0 0 1 2 2 2 1 0 0 2 5 7 7 7 7 6 7 6 5 5 3 2 1 4 7 9 10 9 9 9 9 6 3 2
0 0 0 0 0 0 0 0 0 0 0 0 1 2 2 1 0 0 0 2 4 5 6 5 4 4 4 4 4 4 3 1 2 4 7 8 9 9 9 9 8 6 4 3
0 0 0 0 0 0 0 0 0 0 0 0 0 1 2 1 1 0 0 1 2 3 3 3 3 2 2 1 2 2 2 1 1 3 5 6 7 8 8 6 5 3 2 1
0 0 0 0 0 0 0 0 0 0 0 0 0 0 1 1 1 1 0 0 1 1 1 1 1 1 0 0 1 1 1 0 0 1 2 3 4 5 4 2 1 1 1 0
0 0 0 0 0 0 0 0 0 0 0 0 0 0 0 0 0 0 0 0 0 0 0 0 0 0 0 0 0 0 0 0 0 0 0 1 1 1 1 0 0 0 0 0
0 0 0 0 0 0 0 0 0 0 0 0 0 0 0 0 0 0 0 0 0 0 0 0 0 0 0 0 0 0 0 0 0 0 0 0 0 0 0 0 0 0 0 0
0 0 0 0 0 0 0 0 0 0 0 0 0 0 0 0 0 0 0 0 0 0 0 0 0 0 0 0 0 0 0 0 0 0 0 0 0 0 0 0 0 0 0 0
0 0 0 0 0 0 0 0 0 0 0 0 0 0 0 0 0 0 0 0 0 0 0 0 0 0 0 0 0 0 0 0 0 0 0 0 0 0 0 0 0 0 0 0
0 0 0 0 0 0 0 0 0 0 0 0 0 0 0 0 0 0 0 0 0 0 0 0 0 0 0 0 0 0 0 0 0 0 0 0 0 0 0 0 0 0 0 0
0 0 0 0 0 0 0 0 0 0 0 0 0 0 0 0 0 0 0 0 0 0 0 0 0 0 0 0 0 0 0 0 0 0 0 0 0 0 0 0 0 0 0 0
0 0 0 0 0 0 0 0 0 0 0 0 0 0 0 0 0 0 0 0 0 0 0 0 0 0 0 0 0 0 0 0 0 0 0 0 0 0 0 0 0 0 0 0

GEFSNGP_con_prob3kmehi_186.txt.gz
EHI
0 0 0 0 0 0 0 0 1 1 2 5 7 10 14 19 25 30 35 43 48 53 55 56 55 53 51 52 54 52 47 47 52 55 55 50 47 48 52 53 52 47 41 38
0 0 0 0 0 0 0 0 1 1 2 5 9 12 16 21 26 30 35 40 43 47 53 55 55 54 52 53 56 57 52 49 53 58 59 55 51 53 56 55 52 47 40 36
0 0 0 0 0 0 0 1 1 1 2 6 11 15 18 22 28 33 36 37 36 40 47 49 49 51 52 52 57 60 57 54 56 59 60 57 55 56 57 57 54 48 40 36
0 0 0 0 0 0 0 1 2 2 3 7 14 16 17 22 28 33 36 36 35 37 40 39 39 43 47 49 54 58 58 56 57 58 55 53 53 54 55 56 54 47 39 34
0 0 0 0 0 0 0 1 1 3 5 10 14 14 16 21 26 31 36 37 36 36 37 37 36 37 40 43 48 54 57 58 58 56 52 48 48 52 53 52 48 41 35 32
0 0 0 0 0 0 0 1 3 5 9 12 14 14 18 22 25 32 38 39 37 36 38 41 41 38 36 38 43 51 57 60 60 56 50 45 45 48 48 45 41 36 32 29
0 0 0 1 1 1 1 4 7 10 12 14 17 21 25 27 31 36 39 38 37 36 38 41 41 39 37 37 41 47 53 57 58 55 47 42 42 42 41 39 36 34 30 26
0 0 1 3 3 3 5 8 11 13 14 16 21 26 29 30 34 35 35 34 34 34 34 37 39 39 38 38 40 43 47 51 52 50 46 42 41 38 37 36 34 31 28 26
1 1 3 5 6 6 9 11 13 15 16 18 23 26 26 27 27 27 27 27 27 27 28 32 36 37 38 39 40 41 44 46 46 45 44 41 38 36 36 35 32 27 24 22
3 3 4 5 6 8 10 12 14 16 17 18 19 22 23 22 20 20 21 21 20 21 23 28 34 35 36 37 39 40 42 42 40 37 36 33 31 31 33 33 30 27 22 19
4 5 6 6 7 9 10 12 15 16 16 15 17 20 20 18 17 17 18 18 16 17 20 24 28 31 33 34 35 36 37 37 33 29 27 25 23 24 26 25 23 21 20 18
3 4 5 7 8 10 13 15 16 17 15 14 16 18 18 16 15 15 15 15 14 15 19 21 22 25 28 30 31 33 32 31 28 25 25 22 19 17 16 14 10 9 11 11
1 1 3 5 7 10 14 17 17 16 14 14 15 16 15 14 13 13 12 11 12 15 18 19 19 20 23 25 27 28 27 25 25 26 25 22 17 13 12 7 3 2 2 2
0 0 1 3 5 8 11 14 14 12 12 11 11 12 12 11 10 10 9 9 12 15 18 17 17 17 18 21 22 22 21 20 22 24 23 19 14 12 11 8 5 3 1 0
0 0 1 2 4 5 7 8 9 9 9 8 7 7 7 6 6 7 7 8 11 14 15 15 14 14 15 15 17 18 16 15 17 19 18 16 12 10 9 8 7 6 5 4
0 0 0 1 2 4 5 6 7 7 7 6 4 3 3 3 4 5 5 6 9 11 12 11 10 12 13 12 13 15 14 13 12 13 13 13 11 9 9 8 6 6 8 9
0 0 0 0 1 1 3 5 5 5 5 3 2 1 1 1 2 4 4 4 5 8 9 8 8 10 10 11 12 14 14 13 12 12 11 11 10 9 9 8 6 5 7 9
0 0 0 0 0 0 1 2 3 3 2 1 0 0 0 0 1 3 3 2 2 5 7 7 6 8 9 11 13 14 15 15 13 11 10 9 8 8 8 7 5 5 6 7
0 0 0 1 0 0 0 0 1 1 1 0 0 0 0 0 1 2 3 2 2 4 5 5 5 7 9 10 11 12 13 13 10 8 7 7 7 7 7 6 5 6 7 8
0 0 0 0 0 0 0 0 0 0 0 0 0 0 0 0 0 1 3 2 2 3 3 3 4 6 7 6 6 7 8 8 6 4 4 6 7 7 6 4 4 5 7 8
0 0 0 0 0 0 0 0 0 0 0 0 0 0 0 0 0 1 3 3 2 1 2 3 4 4 5 4 3 4 6 6 4 3 3 4 6 5 4 3 3 4 5 6
0 0 0 0 0 0 0 0 0 0 0 0 0 0 0 0 0 1 3 3 1 0 1 2 2 2 2 3 3 4 5 5 4 3 3 3 3 2 1 1 1 2 3 3
0 0 0 0 0 0 0 0 0 0 0 0 0 0 0 0 0 1 2 2 1 0 0 1 1 1 1 2 4 4 3 3 3 2 2 2 1 0 0 0 0 1 1 1
0 0 0 0 0 0 1 0 0 0 0 0 0 0 0 0 0 0 1 1 0 0 0 0 0 0 0 1 3 4 3 1 1 1 1 1 0 0 0 0 0 0 0 0
0 0 0 0 0 0 0 0 0 0 0 0 0 0 0 0 0 0 0 0 0 0 0 0 0 0 0 1 2 3 2 1 0 0 0 0 0 0 0 0 0 0 0 0
0 0 0 0 0 0 0 0 0 0 0 0 0 0 0 0 0 1 0 0 0 0 0 0 0 0 0 0 1 1 1 0 0 0 0 0 0 0 0 0 0 0 0 0
0 0 0 0 0 0 0 0 0 0 0 0 0 0 0 0 0 1 0 0 0 0 0 0 0 0 0 0 0 0 0 0 0 0 0 0 0 0 0 0 0 0 0 0

GEFSNGP_con_prob3kmehi_192.txt.gz
EHI
0 0 0 0 0 0 0 0 2 5 10 15 21 28 31 30 31 36 43 52 60 65 68 69 69 68 67 70 73 75 76 78 75 70 68 68 69 70 70 68 64 61 59 56
0 0 0 0 0 0 0 0 2 6 10 15 21 28 31 30 31 35 41 50 58 64 67 68 68 68 67 68 72 74 76 75 73 71 70 70 71 72 72 69 64 59 54 52
0 0 0 0 0 0 1 2 3 6 11 17 21 25 28 30 33 37 40 45 51 57 62 65 66 66 65 66 69 72 73 72 71 71 70 71 71 71 70 67 60 54 50 48
1 1 0 0 0 0 2 4 5 6 11 17 19 21 26 30 35 40 41 42 45 49 54 59 61 62 62 62 64 65 65 66 66 67 68 68 68 67 65 61 55 50 48 48
0 0 0 0 0 1 2 4 6 7 11 15 18 20 24 29 34 39 41 42 43 44 47 51 53 54 56 58 58 57 56 56 58 62 64 65 65 64 61 57 52 49 47 45
0 0 0 0 1 1 3 6 9 10 12 16 19 22 25 30 36 39 42 43 43 43 44 46 47 49 52 54 52 50 49 51 54 57 60 61 62 61 58 55 52 47 42 39
0 0 1 1 2 4 8 12 13 13 14 18 24 27 29 34 38 41 43 44 44 45 45 45 45 47 50 51 49 46 46 48 52 55 55 55 56 56 54 52 50 44 38 35
0 1 4 6 5 7 13 14 13 12 13 19 26 31 32 35 38 40 42 43 43 45 45 45 44 44 46 48 48 47 46 47 49 50 49 49 50 49 48 47 44 39 36 34
2 4 8 9 9 9 11 12 11 10 12 18 25 30 33 36 37 37 37 37 38 41 42 40 38 38 40 42 44 46 47 47 45 44 44 46 46 44 41 38 35 34 34 33
7 8 9 10 9 9 10 11 11 11 12 18 25 30 33 36 36 35 33 32 32 35 35 34 32 33 35 36 38 42 44 44 42 41 41 42 41 37 32 29 29 31 32 30
8 8 9 10 9 8 10 11 12 13 15 20 25 29 31 34 35 33 30 29 29 29 30 30 28 29 31 32 34 38 40 40 39 38 36 36 34 28 23 22 22 23 24 24
7 8 9 10 10 8 10 11 13 16 18 21 23 25 27 30 32 30 27 26 25 25 27 27 25 25 26 29 31 34 36 36 34 33 31 30 28 22 17 15 14 12 13 13
6 7 8 10 11 11 11 13 15 18 20 20 20 21 22 25 28 27 23 21 22 23 25 25 23 23 23 24 27 30 31 31 29 27 27 26 24 20 15 11 8 5 4 3
4 4 5 7 10 12 13 15 16 18 19 19 18 18 17 18 21 22 19 17 19 21 22 20 20 22 22 21 21 23 24 24 23 23 22 22 21 19 16 12 10 8 4 2
2 2 2 4 8 11 13 15 15 16 17 17 16 14 12 12 14 17 16 14 16 18 17 16 16 18 18 16 15 16 18 18 19 18 17 17 17 16 15 14 13 12 8 5
2 2 2 3 5 8 9 11 13 14 15 14 13 11 9 9 11 12 12 12 13 14 13 13 12 12 12 11 10 12 13 15 15 13 12 14 15 14 14 13 13 10 7 6
3 2 2 2 3 5 5 7 10 11 12 11 10 10 9 9 9 9 9 9 9 10 10 10 10 9 9 9 10 10 11 12 12 10 11 14 16 14 13 13 12 10 6 5
2 1 1 2 2 3 3 4 6 8 9 9 8 9 8 7 7 7 7 6 6 6 7 7 7 7 9 10 10 9 9 10 11 10 11 14 15 14 13 13 12 10 7 5
1 0 0 1 1 1 2 3 5 6 6 5 5 6 6 5 5 6 6 5 3 4 6 6 5 4 6 8 8 8 9 9 10 10 11 12 12 12 12 13 11 9 7 6
0 0 0 0 0 0 1 2 4 4 2 2 4 6 7 5 4 6 7 5 3 3 6 6 4 3 3 5 6 6 7 7 8 9 9 10 11 12 13 12 9 7 6 6
0 0 0 0 0 0 1 2 2 2 2 3 6 8 9 7 5 6 7 5 3 3 3 3 3 3 3 4 4 5 6 6 7 8 10 11 12 13 12 10 8 7 6 6
0 0 0 0 0 0 1 2 3 3 4 6 8 8 8 8 6 5 5 4 2 1 1 1 2 2 3 3 4 5 6 6 7 8 10 11 12 12 10 8 7 6 6 6
0 0 0 0 0 0 2 4 5 6 7 7 7 7 6 6 4 3 2 1 0 0 0 0 1 1 3 3 4 6 7 7 6 7 8 9 9 8 6 6 6 6 5 5
1 0 0 1 1 2 4 6 7 7 6 5 5 5 5 4 3 2 1 0 0 0 0 0 0 1 2 3 5 6 6 5 4 4 4 4 4 3 3 3 3 3 3 2
2 1 1 2 3 4 5 5 5 4 4 3 3 4 4 3 2 1 0 0 0 0 0 0 0 0 1 2 3 3 3 2 1 1 1 1 1 1 1 2 1 1 1 0
3 3 2 2 3 3 3 2 2 1 1 1 2 2 2 2 1 0 0 0 0 0 0 0 1 0 0 1 1 1 1 0 0 0 0 1 0 0 1 1 0 0 0 0
3 3 3 2 1 1 1 0 0 0 0 0 1 1 1 1 0 0 0 0 0 0 0 0 1 0 0 0 0 0 0 0 0 0 0 1 0 0 0 0 0 0 0 0

GEFSNGP_con_prob3kmehi_198.txt.gz
EHI
0 0 1 1 1 0 1 2 3 5 8 13 16 18 20 22 27 31 33 33 36 42 45 45 45 45 45 46 46 45 43 41 39 36 32 28 25 23 23 23 22 23 24 24
0 1 2 2 2 1 1 2 3 6 9 13 17 18 19 22 26 29 32 33 36 41 43 41 40 38 37 38 41 43 43 41 40 39 37 34 29 27 25 24 24 25 25 25
0 1 2 3 3 3 4 5 6 8 12 15 16 16 18 21 24 26 28 31 34 37 37 35 33 30 29 32 36 39 40 40 40 40 39 38 35 33 30 27 26 27 26 26
1 1 2 2 2 3 6 9 10 13 17 18 17 17 18 20 21 22 25 28 31 33 33 30 29 30 31 34 37 36 35 34 35 35 36 36 36 35 33 30 29 28 27 27
0 1 2 2 1 2 5 9 11 15 19 22 21 21 21 21 20 20 22 26 29 31 31 29 29 32 35 37 36 34 31 29 29 31 33 33 34 34 33 31 29 27 26 27
0 1 1 1 0 1 3 6 8 11 16 19 20 20 21 20 19 18 20 23 26 27 28 27 28 31 34 34 31 28 27 27 27 28 30 31 32 34 34 31 27 25 25 27
0 0 0 0 0 0 1 2 4 6 10 12 11 14 18 20 19 18 19 20 20 20 22 24 25 28 30 28 25 22 22 23 24 25 26 28 30 33 33 31 27 25 24 25
0 0 0 0 0 0 0 1 2 3 6 7 7 10 17 20 20 19 18 17 15 15 16 18 21 24 25 23 19 18 17 19 20 21 23 23 26 28 30 31 28 25 23 23
0 0 0 0 0 0 0 0 1 3 5 7 8 11 17 20 20 18 17 17 16 14 14 14 16 18 18 16 14 14 15 16 18 20 20 20 21 24 27 28 26 23 22 22
0 0 0 0 0 0 0 1 2 4 6 7 8 10 14 17 18 18 17 17 17 15 13 13 14 13 11 11 10 11 13 16 18 19 18 18 19 21 24 24 23 21 20 20
1 0 0 1 1 0 0 1 4 5 6 6 7 9 11 14 17 18 16 16 16 15 13 14 15 13 10 9 9 10 12 15 17 16 15 15 16 18 19 19 18 16 15 16
1 1 1 2 2 1 1 3 5 6 6 6 8 10 12 12 15 15 14 13 14 13 13 14 15 15 13 12 11 11 11 13 13 13 12 13 14 14 14 13 10 8 8 9
1 1 2 3 3 3 3 3 5 6 6 7 9 12 12 12 12 12 12 12 12 13 12 12 13 14 14 13 13 12 11 11 10 9 10 11 12 12 11 8 4 3 3 2
0 1 2 3 3 4 4 4 5 5 5 5 7 9 10 10 10 10 11 11 12 12 11 10 10 11 11 12 12 12 11 9 7 6 7 9 11 12 10 6 3 2 1 0
0 0 1 2 3 4 4 4 4 3 3 3 5 7 7 7 8 9 10 11 11 10 9 8 7 7 8 9 9 10 9 6 5 6 6 7 9 10 9 6 4 3 2 1
0 0 0 1 1 1 2 2 2 2 2 4 6 6 6 6 7 8 9 10 10 9 8 6 5 5 5 6 6 6 5 4 3 4 5 4 5 7 6 4 3 3 3 3
0 0 0 0 0 0 0 0 1 2 4 6 8 7 6 6 6 7 8 9 9 7 5 4 2 1 2 3 3 3 2 1 1 2 3 2 2 3 3 3 3 3 3 3
0 0 0 0 0 0 0 0 1 2 4 7 8 7 6 6 6 6 7 7 5 3 2 1 0 0 1 1 1 1 0 0 0 1 2 1 0 1 1 2 3 3 3 3
0 0 0 0 0 0 0 0 0 1 2 5 7 7 6 6 5 4 4 3 2 0 0 0 0 0 0 0 0 0 0 0 1 1 1 0 0 0 0 1 2 3 3 3
0 0 0 0 0 0 0 0 0 0 0 1 3 4 4 4 3 2 1 1 0 0 0 0 0 0 0 0 0 0 0 0 1 0 0 0 0 0 1 1 2 3 3 3
0 0 0 0 0 0 0 0 0 0 0 0 0 1 1 1 1 1 0 0 0 0 0 0 0 0 0 0 0 0 0 0 0 0 0 0 0 0 1 2 2 2 3 3
0 0 0 0 0 0 0 0 0 0 0 0 0 0 0 0 0 0 0 0 0 0 0 0 0 0 0 0 0 0 0 0 0 1 1 1 0 0 1 2 1 1 1 2
0 0 0 0 0 0 0 0 0 0 0 0 0 0 0 0 0 0 0 0 0 0 0 0 0 0 0 0 0 0 0 0 0 1 1 1 0 0 1 1 0 0 0 1
0 0 0 0 0 0 0 0 0 0 0 0 0 0 0 0 0 0 0 0 0 0 0 0 0 0 0 0 0 0 0 0 0 0 0 0 0 1 2 2 1 0 0 0
0 0 0 0 0 0 0 0 0 0 0 0 0 0 0 0 0 0 0 0 0 0 0 0 0 0 0 0 0 0 0 0 0 0 0 0 0 1 2 2 1 0 0 0
0 0 0 0 0 0 0 0 0 0 0 0 0 0 0 0 0 0 0 0 0 0 0 0 0 0 0 0 0 0 0 0 0 0 0 0 0 1 1 1 0 0 0 0
0 0 0 0 0 0 0 0 0 0 0 0 0 0 0 0 0 0 0 0 0 0 0 0 0 0 0 0 0 0 0 0 0 0 0 0 0 0 0 0 0 0 0 0

GEFSNGP_con_prob3kmehi_204.txt.gz
EHI
0 1 1 1 1 2 1 0 1 2 4 6 10 12 13 14 14 15 19 21 17 13 13 18 25 33 36 35 33 30 27 25 20 14 9 8 10 12 13 13 12 13 13 13
0 0 0 0 1 2 1 1 3 5 6 7 9 12 13 12 11 13 17 20 18 15 15 18 24 29 33 33 31 29 28 25 21 14 11 11 12 13 15 15 15 15 15 14
0 0 0 0 2 3 3 3 5 6 8 9 10 12 12 12 10 11 13 16 17 15 15 19 23 24 27 29 29 27 25 23 18 14 11 12 13 14 16 17 17 17 17 15
0 0 0 0 1 2 3 3 4 6 9 11 12 12 14 14 13 9 9 11 13 13 14 19 21 20 20 23 25 23 21 19 16 14 13 12 11 13 15 17 18 19 18 16
0 0 0 0 0 1 1 1 3 6 9 11 12 14 15 15 12 9 6 7 10 12 15 18 19 17 16 19 21 20 18 18 17 17 17 13 11 11 13 15 17 17 16 15
0 0 0 0 0 0 0 0 1 5 8 9 11 12 12 12 11 8 6 6 8 11 14 16 18 18 18 20 20 19 19 20 21 21 19 16 14 14 15 15 14 13 12 13
0 0 0 0 0 0 0 0 1 4 6 6 7 8 10 10 9 7 5 4 7 10 13 15 17 19 21 21 20 18 17 20 21 20 16 15 16 17 18 16 13 11 9 9
0 0 0 0 0 0 0 0 1 2 3 2 2 5 8 9 7 5 4 3 5 8 11 12 14 16 17 17 15 14 14 15 16 15 12 12 14 16 17 17 15 12 9 8
0 0 0 0 0 0 0 0 1 1 1 0 0 2 5 7 6 4 4 5 5 6 9 10 11 11 11 10 9 9 9 9 10 10 9 9 11 13 14 15 15 13 11 10
0 0 0 0 0 0 0 0 0 0 0 0 0 1 3 5 5 5 6 6 6 7 9 9 9 8 7 6 5 6 6 6 6 6 7 8 10 11 11 12 13 14 14 13
0 0 0 0 0 0 0 0 0 0 0 1 1 2 3 5 5 6 7 9 9 9 9 9 9 7 5 4 3 4 4 5 5 5 6 6 6 6 7 9 11 13 13 14
0 0 1 1 1 1 0 0 0 0 1 2 2 2 3 4 4 6 7 9 10 11 10 10 9 7 5 4 3 3 3 4 5 5 5 3 2 2 3 5 7 8 8 9
0 1 2 2 2 1 0 0 0 0 1 1 1 1 1 2 4 6 7 6 8 11 10 8 7 5 3 3 4 4 5 5 5 4 3 2 1 1 2 2 3 3 3 2
1 1 2 2 2 1 0 0 0 0 0 0 0 0 0 1 3 6 7 5 5 9 9 7 5 3 2 2 3 4 5 6 5 4 3 2 2 2 3 2 3 3 1 0
0 1 1 1 1 0 0 0 0 0 0 0 0 0 0 1 3 6 7 4 3 5 8 7 5 3 1 1 3 3 4 5 6 5 3 2 2 3 3 3 3 3 2 1
0 0 0 0 0 0 0 0 0 0 0 0 0 0 0 0 3 6 6 4 3 4 6 6 5 3 2 2 3 3 3 4 5 5 4 3 3 3 3 3 3 3 2 2
0 0 0 0 0 0 0 0 0 0 0 0 0 0 0 1 3 4 5 6 5 4 4 3 3 2 2 3 4 3 3 3 4 4 3 3 3 3 3 3 2 2 1 1
0 0 0 0 0 0 0 0 0 0 0 0 0 0 1 2 4 4 5 6 5 2 1 1 1 2 2 2 2 3 3 3 3 2 2 2 2 2 2 1 1 1 0 0
0 0 0 0 0 0 0 0 0 0 0 0 0 1 2 4 4 5 5 4 2 0 0 0 0 1 1 1 1 2 2 2 1 1 1 1 1 1 1 0 0 0 0 0
0 0 0 0 0 0 0 0 0 0 0 0 0 1 3 4 4 4 4 2 0 0 0 0 0 0 0 0 0 1 1 1 0 0 0 0 0 0 0 0 0 0 0 0
0 0 0 0 0 0 0 0 0 0 0 0 0 1 3 3 3 3 2 0 0 0 0 0 0 0 0 0 0 0 0 0 0 0 0 0 0 0 0 0 0 0 0 0
0 0 0 0 0 0 0 0 0 0 0 0 0 1 2 1 1 1 1 0 0 0 0 0 0 0 0 0 0 0 0 0 0 0 0 0 0 0 0 0 0 0 0 0
0 0 0 0 0 0 0 0 0 0 0 0 0 1 1 0 0 0 0 0 0 0 0 0 0 0 0 0 0 0 0 0 0 0 0 0 0 0 0 0 0 0 0 0
0 0 0 0 0 0 0 0 0 0 0 0 0 0 0 0 0 0 0 0 0 0 0 0 0 0 0 0 0 0 0 0 0 0 0 0 0 0 0 0 0 0 0 0
0 0 0 0 0 0 0 0 0 0 0 0 0 0 0 0 0 0 0 0 0 0 0 0 0 0 0 0 0 0 0 0 0 0 0 0 0 0 0 0 0 0 0 0
0 0 0 0 0 0 0 0 0 0 0 0 0 0 0 0 0 0 0 0 0 0 0 0 0 0 0 0 0 0 0 0 0 0 0 0 0 0 0 0 0 0 0 0
0 0 0 0 0 0 0 0 0 0 0 0 0 0 0 0 0 0 0 0 0 0 0 0 0 0 0 0 0 0 0 0 0 0 0 0 0 0 0 0 0 0 0 0

GEFSNGP_con_prob3kmehi_210.txt.gz
EHI
0 0 0 0 0 1 1 1 2 2 3 6 12 14 15 16 20 24 28 30 30 31 37 42 46 49 48 43 41 41 41 39 38 40 42 41 38 37 35 31 27 26 25 25
0 0 0 0 0 1 2 2 2 2 4 8 12 14 15 18 21 24 26 27 27 27 31 35 38 41 42 40 39 40 38 37 37 39 40 39 37 36 36 34 31 29 28 27
0 0 0 0 0 1 1 1 2 3 6 11 13 13 15 18 21 24 25 24 23 22 24 26 29 32 34 36 37 37 35 35 36 37 39 38 36 36 36 36 35 33 31 29
0 0 0 0 0 0 0 1 4 7 10 14 15 14 14 16 18 20 22 22 20 20 20 22 25 28 30 33 35 34 34 34 34 35 37 36 35 35 35 34 34 33 31 31
0 0 0 0 0 0 0 2 6 10 14 17 17 16 15 15 16 17 18 19 19 20 20 22 24 27 30 33 34 33 32 33 34 34 35 34 32 31 30 29 29 29 29 29
0 0 0 0 0 0 0 1 4 9 14 18 19 19 18 17 16 16 17 17 18 19 21 23 24 26 30 31 32 30 30 32 34 33 33 30 27 25 25 25 24 25 25 24
0 0 0 0 0 0 2 3 4 7 12 17 19 20 20 19 17 16 16 15 15 18 21 22 22 24 26 26 27 27 27 29 30 30 29 27 24 22 22 21 21 21 21 20
0 0 0 0 0 1 3 5 5 6 10 16 20 20 21 20 18 16 14 12 12 15 19 20 20 22 23 24 26 28 28 27 27 26 25 25 23 21 20 20 20 20 19 19
0 0 0 0 0 0 2 3 5 6 8 13 16 18 19 19 17 15 13 11 10 12 16 19 21 22 23 25 29 31 29 27 26 25 24 24 23 21 19 18 17 18 18 17
0 0 0 0 0 0 0 1 3 4 5 6 9 11 13 15 14 12 11 10 9 10 14 18 21 22 23 25 28 29 28 27 26 24 23 22 21 18 15 13 13 15 15 15
0 0 0 0 0 1 1 1 1 1 2 2 3 5 7 9 10 10 10 9 7 7 11 16 19 20 20 23 25 25 26 25 23 21 20 18 14 12 10 8 8 10 10 10
1 1 0 0 0 1 2 1 0 0 1 2 3 4 5 7 8 8 9 8 6 5 8 14 18 18 17 19 22 23 23 21 18 17 16 13 10 7 5 4 4 4 5 5
2 2 1 0 1 2 3 2 1 1 1 3 6 7 7 6 6 7 7 6 4 4 8 13 17 17 16 17 18 19 18 16 15 14 13 11 9 6 5 3 2 1 2 2
3 2 1 1 2 3 4 4 3 3 3 5 7 8 7 5 6 6 6 4 3 4 7 13 17 17 16 14 13 13 13 11 12 13 12 10 9 8 6 5 3 2 1 1
3 3 2 2 3 4 4 4 4 4 3 4 5 5 4 4 4 4 4 4 4 4 6 10 14 14 13 12 10 10 8 6 7 9 10 9 9 8 7 6 5 3 2 1
3 3 3 3 3 4 4 4 4 3 3 3 4 3 3 3 3 3 4 4 4 3 3 7 10 10 10 10 9 8 6 3 3 5 7 8 8 6 6 6 5 4 3 3
3 3 3 4 3 4 4 4 3 3 3 3 3 3 3 3 3 3 4 3 2 1 2 4 6 7 8 8 7 6 4 3 3 4 5 7 7 5 5 5 4 3 3 3
3 3 4 4 4 3 4 3 3 3 3 3 3 3 3 2 2 2 2 2 1 0 1 2 4 7 9 8 7 5 3 3 3 4 5 6 5 5 5 4 4 3 3 3
2 2 3 3 3 3 3 3 3 2 2 2 2 2 1 1 1 1 1 1 0 0 1 1 3 7 9 9 7 5 4 4 4 5 5 5 5 5 4 4 3 3 3 3
1 1 1 1 2 2 2 2 1 1 1 1 1 1 0 0 0 0 0 0 1 2 2 1 3 7 8 7 6 6 5 5 4 5 6 5 6 6 5 4 3 3 2 2
0 0 0 0 1 1 1 1 1 1 1 0 0 0 0 0 0 0 0 0 2 3 3 3 4 6 6 5 6 6 5 4 4 5 5 6 5 5 4 4 2 1 1 1
0 0 0 0 0 0 0 0 1 1 1 0 0 1 1 1 0 0 0 0 1 2 3 3 3 3 3 3 5 5 4 3 3 3 3 3 3 2 2 1 1 0 0 0
0 0 0 0 0 0 0 0 0 0 0 0 0 1 2 1 1 0 0 0 0 1 2 2 2 1 1 1 3 3 2 1 1 1 1 1 1 0 0 0 0 0 0 0
0 0 0 0 0 0 0 0 0 0 0 0 0 0 1 1 1 1 0 0 0 0 1 1 0 0 0 1 1 1 1 0 0 0 0 0 0 0 0 0 0 0 0 0
1 1 1 0 0 0 0 0 0 0 0 0 0 0 0 0 0 0 0 0 0 0 0 0 0 0 0 0 0 0 0 0 0 0 0 0 0 0 0 0 0 0 0 0
2 2 1 1 1 0 0 0 0 0 0 0 0 0 0 0 0 0 0 0 0 0 0 0 0 0 0 0 0 0 0 0 0 0 0 0 0 0 0 0 0 0 0 0
1 1 1 1 1 0 0 0 0 0 0 0 0 0 0 0 0 0 0 0 0 0 0 0 0 0 0 0 0 0 0 0 0 0 0 0 0 0 0 0 0 0 0 0

GEFSNGP_con_prob3kmehi_216.txt.gz
EHI
0 0 0 0 0 0 0 0 0 0 2 8 14 17 19 24 31 35 40 47 51 52 57 63 66 66 65 64 61 60 59 57 52 45 44 47 48 45 43 43 44 47 47 44
0 0 0 0 0 0 0 0 0 0 2 8 14 17 19 24 29 34 39 43 47 50 53 59 62 63 62 61 58 56 55 54 50 45 44 45 45 43 42 42 44 46 45 43
0 0 0 0 0 0 0 0 0 0 3 8 13 17 19 22 27 33 36 38 40 42 46 52 55 55 55 55 53 51 50 49 47 44 43 43 41 40 41 42 44 44 42 41
0 0 0 0 0 0 0 1 2 3 6 9 13 17 18 22 28 31 32 33 34 36 41 46 48 47 46 47 48 46 45 45 43 43 42 41 38 37 39 41 43 43 41 40
0 0 0 0 0 0 0 2 6 8 10 12 14 16 19 25 31 32 30 29 31 34 37 42 44 43 41 41 41 41 40 40 40 40 40 37 33 32 33 36 37 38 37 37
0 0 0 0 0 0 0 2 7 12 15 16 16 19 25 31 34 32 31 31 30 30 32 36 40 41 41 40 38 36 36 38 38 36 36 33 30 27 28 29 30 30 29 30
0 0 0 0 1 2 3 5 9 14 18 19 20 26 31 33 33 32 33 33 31 28 28 32 35 38 40 40 37 33 33 35 35 33 31 29 27 25 24 25 25 24 23 23
0 0 1 2 3 5 7 9 11 14 18 20 24 29 31 30 30 31 32 32 30 28 28 28 30 32 36 36 34 31 30 30 31 31 29 27 26 25 23 23 23 22 20 19
1 2 2 3 4 6 8 9 9 11 14 18 21 25 27 27 27 28 28 27 27 27 26 24 24 27 32 33 31 29 28 29 29 28 27 25 24 23 22 22 21 20 19 18
2 3 3 3 4 4 6 7 7 8 10 12 15 18 23 25 26 27 26 24 24 24 24 23 21 23 27 30 30 29 28 28 28 27 26 24 20 19 19 19 19 19 19 19
3 4 4 4 3 4 5 7 8 7 7 8 11 15 21 24 26 27 25 23 23 23 24 23 20 20 23 26 28 29 28 26 25 24 25 22 17 14 13 13 13 14 15 17
3 4 5 4 3 3 4 6 7 6 5 6 8 14 20 24 25 26 24 23 22 23 24 22 18 18 21 25 27 27 26 24 21 21 21 17 12 9 7 6 6 6 7 8
3 4 4 3 3 3 3 4 4 4 4 6 8 12 16 19 21 21 21 21 21 21 22 21 17 16 18 22 25 25 23 22 20 18 15 11 9 8 6 3 2 1 2 2
1 2 2 1 2 3 3 3 4 4 5 7 10 11 12 13 14 14 16 18 18 18 19 19 16 15 16 19 22 21 19 18 18 16 11 7 6 8 8 7 4 3 2 1
0 1 1 1 1 3 4 4 5 6 7 9 10 10 9 8 9 10 13 16 18 18 18 17 17 16 16 17 18 18 16 14 12 11 8 4 4 6 8 9 7 5 3 2
0 0 0 0 1 2 4 6 7 8 8 8 8 8 7 6 7 9 13 16 18 18 18 18 16 15 15 14 14 14 13 10 7 7 5 3 2 4 7 7 5 4 3 2
0 0 1 0 0 1 3 5 6 7 6 6 6 6 6 6 8 10 12 14 15 15 16 15 13 12 10 8 9 11 10 7 5 3 3 2 2 3 5 5 3 2 1 1
0 0 1 1 1 1 2 3 4 4 4 4 4 4 6 7 9 11 12 12 11 11 10 9 8 7 6 5 6 9 9 6 4 2 1 1 1 3 4 4 2 1 1 1
0 1 2 2 2 2 3 3 3 3 3 3 3 4 6 8 10 10 10 9 8 7 7 5 4 4 4 3 5 8 8 6 5 2 1 1 1 2 2 2 2 2 1 2
0 1 2 3 2 3 3 3 3 2 2 2 2 3 6 8 8 7 7 6 5 5 5 3 2 3 3 3 3 5 6 5 4 3 2 2 1 1 1 2 3 3 3 3
0 0 1 2 2 2 2 2 1 1 1 1 1 1 3 5 5 5 5 4 3 3 2 2 2 2 2 2 2 4 4 3 3 3 3 3 2 2 2 3 3 3 3 3
0 0 0 1 1 1 1 1 1 1 1 1 1 1 3 4 4 4 4 4 3 1 1 0 1 1 1 1 2 3 3 2 3 4 4 4 3 3 3 3 3 3 3 3
1 1 0 0 0 0 1 2 2 2 2 2 2 3 3 4 4 3 3 3 2 1 0 0 0 0 0 1 2 3 3 3 3 3 4 4 4 3 3 3 3 3 3 3
1 1 0 0 0 0 1 1 1 1 1 1 1 2 3 3 3 2 1 1 1 0 0 0 0 0 1 1 3 3 3 3 3 3 3 4 4 4 3 3 3 3 3 2
1 0 0 0 0 0 0 0 0 0 0 0 0 1 1 1 2 1 0 0 0 0 0 0 0 1 2 3 3 3 3 3 3 3 3 3 4 3 3 2 2 2 1 1
0 0 0 0 0 0 0 0 0 0 0 0 0 0 0 0 0 0 0 0 0 0 0 1 1 1 3 3 3 3 3 3 3 2 2 2 2 2 1 1 1 1 0 0
0 0 0 0 0 0 0 0 0 0 0 0 0 0 0 0 0 0 0 0 0 0 1 2 2 2 3 3 3 3 3 3 2 1 1 1 1 1 0 0 0 0 0 0

GEFSNGP_con_prob3kmehi_222.txt.gz
EHI
0 0 0 0 0 0 0 0 1 2 5 8 12 14 18 24 26 25 25 28 29 27 24 24 26 30 36 44 48 49 50 50 43 37 35 37 37 33 28 25 23 19 15 14
0 0 0 0 0 0 0 0 1 2 5 10 13 15 19 21 22 22 22 24 24 23 20 21 24 28 33 38 42 45 47 45 40 35 34 37 38 35 30 26 24 20 16 15
0 0 0 0 0 0 1 2 2 4 8 13 16 17 20 20 20 19 18 18 18 17 17 21 24 26 29 32 35 38 40 39 34 31 32 35 37 34 30 25 23 20 15 14
0 0 0 0 0 0 1 3 5 7 11 15 18 20 22 22 20 17 15 14 14 14 17 23 26 27 28 30 31 34 35 33 30 28 29 30 31 30 25 22 20 16 14 13
0 0 0 0 0 0 1 3 6 8 12 16 20 23 24 22 20 16 14 13 14 15 18 22 26 28 29 29 29 31 31 29 27 26 25 25 25 23 20 18 17 14 14 16
0 0 0 0 0 0 1 2 5 9 12 16 19 21 20 19 18 16 14 16 19 20 20 20 22 25 27 28 29 30 28 25 24 24 23 21 20 18 17 16 15 14 15 17
0 0 0 0 0 0 0 1 5 8 10 13 16 16 15 14 16 17 17 20 22 22 21 20 21 23 25 26 27 28 28 25 22 22 21 18 15 14 14 14 14 14 14 15
0 0 0 0 1 1 1 2 4 6 7 10 13 13 12 13 14 17 18 20 20 19 20 20 21 22 24 23 23 25 27 24 20 18 16 13 12 12 12 12 13 13 13 12
0 0 0 0 1 2 3 3 4 5 6 8 9 9 11 12 14 14 16 17 17 17 17 17 17 19 20 18 18 19 20 19 16 14 12 10 9 10 10 10 11 13 13 13
0 0 0 0 1 2 3 3 3 4 6 7 6 6 8 11 12 12 13 14 14 15 15 13 12 12 13 13 13 13 13 14 13 12 11 8 7 8 9 9 9 11 13 13
0 0 0 0 1 2 2 2 3 4 4 4 3 3 5 7 10 11 13 13 13 14 13 11 8 6 6 7 8 8 9 10 11 11 10 7 5 4 5 6 6 7 9 10
0 0 0 0 0 1 1 1 1 2 2 2 1 1 2 4 8 11 12 12 12 12 11 9 6 4 3 3 4 5 6 7 8 8 8 6 4 2 2 2 2 3 4 4
0 0 1 1 1 1 1 1 1 1 1 1 0 1 3 5 8 9 10 10 10 9 7 4 3 3 2 1 1 2 3 3 4 5 5 6 5 3 2 1 0 0 1 1
0 0 1 2 2 2 2 2 2 1 1 1 1 3 5 7 7 7 7 7 7 5 3 1 1 1 1 0 0 1 1 1 2 3 4 4 5 4 3 1 0 0 0 0
0 0 1 1 1 1 1 1 1 1 1 2 4 5 6 7 7 6 6 5 4 3 1 0 0 0 0 0 0 0 0 0 1 1 2 3 4 4 3 1 0 0 0 0
0 0 0 0 0 0 0 0 0 1 2 3 5 5 5 6 6 6 5 4 3 1 0 0 0 0 0 0 0 0 0 0 0 0 1 2 3 3 2 1 0 0 0 0
0 0 0 0 0 0 0 0 0 1 2 3 4 4 4 5 5 4 4 3 3 1 0 0 0 0 0 0 0 0 0 0 0 0 0 1 3 3 1 0 0 0 0 0
0 0 0 0 0 0 0 0 0 0 2 3 3 3 3 3 3 3 3 3 3 2 1 0 0 0 0 0 0 0 0 0 0 0 0 1 2 2 1 0 0 0 0 0
0 0 0 0 0 0 0 0 1 1 2 3 2 1 1 1 1 2 3 3 3 3 1 0 0 0 0 0 0 0 0 0 0 0 0 0 1 1 0 0 0 0 0 0
0 0 0 0 0 0 0 0 1 2 3 2 1 0 0 0 1 2 3 3 2 2 1 0 0 0 0 0 0 0 0 0 0 0 0 0 1 1 0 0 0 0 0 0
0 0 0 0 0 0 0 0 1 2 2 1 0 0 0 0 0 1 2 2 1 1 1 0 0 0 0 0 0 0 0 0 0 0 0 1 2 2 1 1 0 0 0 0
0 0 0 0 0 0 0 0 0 1 1 0 0 0 0 0 0 1 2 2 2 1 0 0 0 0 0 0 0 0 0 0 0 0 0 1 2 3 3 2 1 0 0 0
0 0 0 0 0 0 0 0 0 0 0 0 0 0 0 0 0 0 1 2 2 1 0 0 0 0 0 0 0 0 0 0 0 0 0 1 2 3 3 3 2 1 1 0
0 0 0 0 0 0 0 0 0 0 0 0 0 0 0 0 0 0 0 1 1 1 0 0 0 0 0 0 0 0 0 0 0 0 0 0 1 2 2 2 2 2 2 1
0 0 0 0 0 0 0 0 0 0 0 0 0 0 0 0 0 0 0 0 0 0 0 0 0 0 0 0 0 0 0 0 0 0 0 0 0 1 1 1 1 1 2 1
0 0 0 0 0 0 0 0 0 0 0 0 0 0 0 0 0 0 0 0 0 0 0 0 0 0 0 0 0 0 0 0 0 0 0 0 0 0 0 0 1 1 2 2
0 0 0 0 0 0 0 0 0 0 0 0 0 0 0 0 0 0 0 0 0 0 0 0 0 0 0 0 0 0 0 0 0 0 0 0 0 0 0 1 2 2 3 3

GEFSNGP_con_prob3kmehi_228.txt.gz
EHI
0 0 0 0 0 1 1 1 1 2 3 5 7 8 7 7 9 12 13 12 11 12 13 14 15 17 19 23 25 26 26 27 25 21 16 12 10 9 9 8 9 11 10 9
0 0 0 0 0 1 2 2 2 3 4 6 7 7 9 10 13 14 15 14 12 11 12 13 14 15 17 20 24 26 26 27 26 23 18 14 12 13 13 12 11 12 13 13
0 0 0 0 0 1 1 2 2 3 4 6 7 9 12 14 15 16 17 17 15 12 11 10 11 12 14 18 22 25 24 24 24 23 20 17 17 18 18 16 15 16 17 16
0 0 0 0 0 0 1 2 1 2 4 7 9 11 15 17 16 16 18 18 17 14 11 9 9 9 11 16 20 21 21 20 21 21 21 20 20 21 20 18 18 19 19 18
0 0 0 0 0 0 1 1 1 1 5 9 11 12 15 17 17 17 16 15 14 13 11 10 9 8 9 13 16 17 17 19 20 20 20 20 21 21 21 20 19 19 19 19
0 0 0 0 0 0 0 0 0 1 4 8 11 12 12 14 15 15 13 11 10 10 9 10 9 8 9 11 14 15 16 19 21 21 22 22 21 21 20 19 17 16 16 16
0 0 0 0 0 0 0 0 0 0 2 5 7 8 9 10 11 12 11 9 9 9 9 8 8 8 8 10 12 14 17 19 21 21 22 21 19 18 16 14 13 13 12 11
0 0 0 0 0 0 0 0 0 0 0 1 2 3 5 7 8 8 8 7 7 8 7 6 7 7 7 7 9 13 16 18 19 19 18 17 16 14 12 10 9 9 9 8
0 0 0 0 0 0 0 0 0 0 0 0 1 1 2 4 5 5 5 4 4 4 3 3 3 5 6 6 8 12 14 16 17 16 14 12 12 10 8 6 6 7 7 7
0 0 0 0 0 0 0 0 0 1 1 1 1 0 0 1 2 3 3 2 2 3 3 2 2 4 6 8 10 12 13 14 14 13 9 8 8 7 5 4 5 6 6 6
0 0 0 0 0 0 0 0 0 0 1 1 1 0 0 0 1 2 2 1 3 5 5 3 3 4 5 8 11 11 11 11 11 9 7 6 6 5 3 3 3 4 5 5
0 0 0 0 0 0 0 0 0 0 0 0 0 0 0 1 2 2 2 2 3 5 5 3 3 3 4 6 8 9 9 9 8 7 6 7 7 5 3 1 2 2 2 2
0 0 0 0 0 0 0 0 0 0 0 0 0 0 0 1 2 2 2 2 3 3 3 2 1 1 2 4 6 7 6 6 5 4 5 7 7 5 3 1 0 0 0 0
0 0 0 0 0 0 0 0 0 0 0 0 0 1 1 2 2 2 1 1 1 1 1 0 0 0 1 3 4 4 3 3 3 2 2 4 5 5 3 1 0 0 0 0
0 0 0 0 0 0 0 0 0 0 0 0 1 2 2 1 1 1 0 0 0 0 0 0 0 0 0 1 1 1 1 1 1 0 0 1 3 4 3 1 0 0 0 0
0 0 0 0 0 0 0 0 0 0 0 0 1 2 1 0 0 0 0 0 0 0 0 0 0 0 0 0 0 0 0 0 0 0 0 0 1 3 3 2 1 0 0 0
0 0 0 0 0 0 0 0 0 0 0 0 1 2 1 0 0 0 0 0 0 0 0 0 0 0 0 0 0 0 0 0 0 0 0 0 0 1 2 2 1 0 0 0
0 0 0 0 0 0 0 0 0 0 0 0 1 1 0 0 0 0 0 0 0 0 0 0 0 0 0 0 0 0 0 0 0 0 0 0 0 0 1 1 0 1 1 0
0 0 0 0 0 0 0 0 0 0 0 0 0 0 0 0 0 0 0 0 0 0 0 0 0 0 0 0 0 0 0 0 0 0 0 0 0 0 0 0 0 1 2 1
0 0 0 0 0 0 0 0 0 0 0 0 0 0 0 0 0 0 0 0 0 0 0 0 0 0 0 0 0 0 0 0 0 0 0 0 0 0 0 0 0 1 1 1
0 0 0 0 0 0 0 0 0 0 0 0 0 0 0 0 0 0 0 0 0 0 0 0 0 0 0 0 0 0 0 0 0 0 0 0 0 0 0 0 0 0 0 0
0 0 0 0 0 0 0 0 0 0 0 0 0 0 0 0 0 0 0 0 0 0 0 0 0 0 0 0 0 0 0 0 0 0 0 0 0 0 0 0 0 0 0 0
0 0 0 0 0 0 0 0 0 0 0 0 0 0 0 0 0 0 0 0 0 0 0 0 0 0 0 0 0 0 0 0 0 0 0 0 0 0 0 0 0 0 0 0
0 0 0 0 0 0 0 0 0 0 0 0 0 0 0 0 0 0 0 0 0 0 0 0 0 0 0 0 0 0 0 0 0 0 0 0 0 0 0 0 0 0 0 0
0 0 0 0 0 0 0 0 0 0 0 0 0 0 0 0 0 0 0 0 0 0 0 0 0 0 0 0 0 0 0 0 0 0 0 0 0 0 0 0 0 0 0 0
0 0 0 0 0 0 0 0 0 0 0 0 0 0 0 0 0 0 0 0 0 0 0 0 0 0 0 0 0 0 0 0 0 0 0 0 0 0 0 0 0 0 0 0
0 0 0 0 0 0 0 0 0 0 0 0 0 0 0 0 0 0 0 0 0 0 0 0 0 0 0 0 0 0 0 0 0 0 0 0 0 0 0 0 0 0 0 0

GEFSNGP_con_prob3kmehi_234.txt.gz
EHI
0 0 0 0 0 0 0 0 0 0 0 2 4 8 12 17 23 25 24 25 30 34 34 34 37 40 38 37 36 36 39 40 38 35 33 33 33 31 30 30 31 32 32 33
0 0 0 0 0 0 0 0 0 0 1 3 6 9 12 16 22 24 24 26 30 33 35 35 36 38 39 39 39 38 39 40 38 35 32 30 30 30 31 32 33 32 32 32
0 0 0 0 0 0 0 0 0 0 1 3 6 9 12 15 20 24 24 25 27 30 33 34 34 35 37 39 40 40 38 36 33 31 29 28 28 30 31 32 33 33 32 33
0 0 0 0 0 0 0 0 0 0 1 3 6 10 13 15 20 24 26 25 25 26 29 31 32 32 32 34 37 38 36 32 27 26 27 27 28 30 31 33 33 33 33 34
0 0 0 0 0 0 0 0 0 1 2 4 7 11 12 14 19 24 26 26 25 26 29 31 31 30 29 30 33 33 31 28 25 26 27 27 28 31 33 35 35 33 32 32
0 0 0 0 0 0 0 0 1 2 3 5 8 10 11 12 16 22 25 27 28 29 29 29 28 26 26 28 28 27 24 23 23 25 27 27 28 30 33 36 36 34 32 31
0 0 0 0 0 0 0 0 1 2 3 5 8 9 9 10 12 17 22 26 28 30 29 25 22 20 21 23 23 20 20 20 20 22 23 25 27 31 33 34 34 34 33 31
0 0 0 0 0 0 0 0 1 2 3 5 7 9 9 8 10 13 17 20 24 27 27 24 20 18 19 19 17 16 17 20 21 21 21 22 26 30 31 30 30 31 29 28
0 0 0 0 0 0 0 0 1 3 4 4 5 7 7 7 7 9 10 13 16 19 22 22 19 17 17 18 16 15 16 20 22 23 23 23 24 26 28 28 27 25 23 21
0 0 0 0 0 0 0 0 1 2 2 3 5 6 6 6 6 6 7 8 8 10 14 17 16 15 16 18 18 16 17 19 20 22 22 21 20 21 22 22 21 20 17 15
0 0 0 0 0 0 0 0 0 0 1 3 5 6 6 5 4 4 5 4 4 5 9 13 14 13 14 17 18 17 17 16 16 17 16 15 14 14 14 13 13 13 12 11
0 0 0 0 0 0 0 0 0 0 1 3 6 6 6 6 6 6 6 5 4 4 6 10 11 10 11 12 13 14 14 12 11 10 10 9 8 8 7 6 5 5 5 5
0 0 0 0 0 0 0 0 0 1 2 4 5 6 6 7 7 8 7 5 4 4 4 7 8 7 7 7 9 10 10 8 6 7 7 6 6 6 5 3 1 1 1 1
0 0 0 0 0 0 0 0 1 1 2 3 3 3 4 6 7 7 6 5 4 4 4 4 6 6 6 6 6 7 6 4 4 6 7 7 7 6 5 3 1 0 0 0
0 0 0 0 0 0 0 0 1 1 1 1 1 1 1 3 4 5 5 4 3 3 3 3 4 4 4 4 4 4 3 1 2 3 4 5 6 6 4 3 1 1 0 0
0 0 0 0 0 0 0 0 1 1 0 0 0 0 0 1 1 3 5 5 4 3 3 3 2 1 1 1 1 1 1 0 0 1 1 3 4 3 2 1 1 1 0 0
0 0 0 0 0 0 0 0 0 0 0 0 0 0 0 0 0 2 3 3 3 2 2 2 1 0 0 0 0 0 0 0 0 0 0 1 2 1 0 0 1 1 0 0
0 0 0 0 0 0 0 0 0 0 0 1 1 0 0 0 0 1 1 1 1 1 1 1 0 0 0 0 0 0 0 0 0 0 0 0 0 0 0 0 0 0 0 0
0 0 0 0 0 0 0 0 0 0 0 1 1 0 0 0 0 0 0 1 1 0 0 0 0 0 1 1 1 0 0 0 0 0 0 0 0 0 0 0 0 0 0 0
0 0 0 0 0 0 0 0 0 0 0 1 1 0 0 0 0 0 0 1 1 0 0 0 0 0 1 1 1 0 1 1 0 0 0 0 0 0 0 0 0 0 0 0
0 0 0 0 0 0 0 0 0 0 0 0 0 0 0 0 1 1 1 0 0 0 0 0 0 0 1 1 0 0 1 1 0 0 0 0 0 0 0 0 0 0 0 0
0 0 0 0 0 0 0 0 0 0 0 0 0 0 0 0 1 1 1 0 0 0 0 0 0 0 0 0 0 0 0 0 0 0 0 0 0 0 0 0 0 0 0 0
0 0 0 0 0 0 0 0 0 0 0 0 0 0 0 1 1 0 0 0 0 0 0 0 0 0 0 0 0 0 0 0 0 0 0 0 0 0 0 0 0 0 0 0
0 0 0 0 0 0 0 0 0 0 1 0 0 0 0 0 0 0 0 0 0 0 0 0 0 0 0 0 0 0 0 0 0 0 0 0 0 0 0 0 0 0 0 0
0 0 0 0 0 0 0 0 0 0 0 0 0 0 0 0 0 0 0 0 0 0 0 0 0 0 0 0 0 0 0 0 0 0 0 0 0 0 0 0 0 0 0 0
0 0 0 0 0 0 0 0 0 0 0 0 0 0 0 0 0 0 0 0 0 0 0 0 0 0 0 0 0 0 0 0 0 0 0 0 0 0 0 0 0 0 0 0
0 0 0 0 0 0 0 0 0 0 0 0 0 0 0 0 0 0 0 0 0 0 0 0 0 0 0 0 0 0 0 0 0 0 0 0 0 0 0 0 0 0 0 0

GEFSNGP_con_prob3kmehi_240.txt.gz
EHI
0 0 0 0 0 0 0 0 0 2 5 8 8 9 13 17 22 28 30 33 39 48 55 57 54 50 50 51 53 54 57 59 59 58 59 59 58 56 52 48 45 44 42 38
0 0 0 0 0 0 0 0 0 1 5 8 8 9 13 19 26 31 34 37 43 49 53 55 54 51 52 54 55 57 58 58 57 56 55 54 53 51 50 48 43 40 39 37
0 0 0 0 0 0 0 0 0 1 4 6 6 8 14 22 30 36 39 42 46 48 51 52 52 51 53 56 57 57 56 55 54 53 51 49 47 47 49 49 45 41 39 37
0 0 0 0 0 0 0 0 0 1 3 3 3 7 15 23 30 37 41 40 42 44 45 48 50 50 52 53 54 54 52 51 51 49 47 45 45 46 50 51 47 43 40 37
0 0 0 0 0 0 0 0 1 2 3 3 3 6 13 23 29 35 37 35 33 35 37 41 46 49 49 49 49 48 48 47 46 44 41 40 40 43 47 46 43 40 37 34
0 0 0 0 0 0 0 0 1 4 6 7 9 11 16 23 29 32 32 29 28 29 32 36 41 44 46 47 46 43 43 43 42 40 38 37 38 40 41 39 36 34 33 33
0 0 1 2 2 3 3 2 2 6 12 15 17 20 23 26 28 28 28 26 26 29 33 35 37 39 42 44 42 37 37 38 37 36 34 34 36 38 36 33 30 29 32 34
0 1 2 3 4 6 7 6 5 9 14 17 20 23 25 27 26 24 23 23 25 30 33 34 36 38 39 37 35 33 33 33 33 31 29 28 31 34 33 31 29 29 31 32
0 1 2 2 3 5 6 7 7 8 10 13 16 19 21 22 22 20 20 21 23 27 30 32 34 38 39 36 33 32 32 30 27 26 24 23 25 27 30 31 30 28 27 26
0 0 0 0 1 2 3 4 5 5 6 9 12 15 18 20 20 19 18 19 20 23 28 32 35 37 38 37 34 33 32 28 24 22 20 19 20 21 24 27 27 24 22 22
0 0 0 0 0 1 1 2 2 3 4 6 9 13 18 20 21 20 19 19 20 22 27 32 35 36 34 33 31 31 29 25 22 19 16 15 14 13 15 17 16 15 15 16
0 0 1 1 1 1 1 2 2 2 3 5 6 10 16 19 21 22 21 21 21 23 25 28 29 29 28 27 27 28 26 23 20 17 14 12 10 9 8 6 5 5 6 6
0 0 0 0 0 0 0 1 1 3 3 4 5 8 13 17 19 20 20 20 20 20 20 20 20 22 23 24 25 25 22 19 17 14 11 9 7 5 4 2 0 0 1 1
0 0 0 0 0 0 0 0 0 2 3 4 6 9 12 14 15 15 15 15 15 15 14 14 15 18 20 21 22 21 17 14 12 10 8 6 4 3 2 1 0 1 1 0
0 0 0 0 0 0 0 0 0 1 2 4 6 9 10 11 11 11 12 13 14 14 13 14 16 18 19 19 18 17 13 10 9 7 4 4 4 3 1 0 1 2 2 1
0 0 0 0 0 0 0 0 1 1 2 4 7 8 8 8 9 10 12 14 15 16 17 19 19 19 18 17 15 12 9 7 7 4 2 2 3 2 1 0 1 2 2 1
0 0 0 1 1 1 1 1 1 1 3 5 6 6 6 6 8 10 12 13 14 16 18 20 20 18 17 18 15 8 4 3 3 2 1 1 1 1 0 0 0 0 0 1
0 0 1 2 2 2 1 0 0 1 3 5 6 5 4 4 5 7 9 11 11 13 16 17 16 15 15 16 14 8 2 0 0 0 0 0 0 0 0 0 0 0 0 0
0 1 2 2 2 2 1 1 1 2 4 6 7 5 4 2 2 3 6 8 8 9 12 13 12 10 11 11 10 7 4 1 1 0 0 0 1 0 0 0 0 0 0 0
1 2 1 1 1 1 2 2 3 4 5 7 6 4 3 2 1 3 4 4 5 8 10 10 8 7 7 7 5 5 4 3 2 1 0 0 0 0 0 0 0 0 0 0
2 2 1 0 0 1 2 4 4 4 4 4 3 1 1 1 2 3 4 3 5 7 7 6 6 6 6 5 3 3 4 4 2 1 0 0 0 0 0 0 0 0 0 0
1 2 2 1 1 2 2 4 4 3 1 1 1 1 0 1 1 2 2 2 3 4 4 4 4 4 4 3 2 3 3 3 2 1 1 0 0 0 0 0 0 0 0 0
1 2 3 3 2 2 1 2 3 3 2 2 3 2 1 0 0 0 1 1 1 1 3 3 2 1 2 3 3 2 2 2 1 0 0 0 0 0 0 0 0 0 0 0
2 2 2 2 2 1 0 1 2 3 4 4 4 3 1 1 1 1 1 0 0 1 2 2 1 0 1 3 2 1 1 1 0 0 0 0 0 0 0 0 0 0 0 0
1 1 1 1 1 0 0 0 1 2 3 3 2 2 1 2 2 2 2 1 0 0 1 1 0 0 0 1 1 0 0 0 0 0 1 1 1 0 0 0 0 0 0 0
0 0 0 0 0 0 0 0 0 0 1 1 0 0 1 2 2 2 2 1 0 0 0 0 0 0 0 0 0 0 0 0 0 0 1 2 2 1 0 0 0 0 0 0
0 0 0 0 0 0 0 0 0 0 0 0 0 0 0 1 1 1 1 0 0 0 0 0 0 0 0 0 0 0 0 0 0 0 1 2 3 2 1 0 0 0 0 0

GEFSNGP_con_prob3kmehi_246.txt.gz
EHI
0 0 0 0 0 0 0 0 0 1 4 5 7 12 16 19 22 24 28 31 30 29 30 30 30 32 36 40 39 36 37 39 39 37 33 29 25 23 22 19 17 19 20 20
0 0 0 0 0 0 0 0 0 1 3 6 10 14 17 19 22 24 27 29 28 28 28 28 29 30 32 35 34 33 35 35 33 32 31 29 25 22 19 17 16 17 18 17
0 0 0 0 0 0 0 0 0 1 4 9 14 18 19 20 21 23 24 23 22 22 24 26 28 28 28 28 28 29 29 28 26 26 29 29 26 22 20 18 16 15 14 13
0 0 0 0 0 0 0 0 1 3 7 12 16 19 20 19 19 21 20 18 16 17 21 25 28 28 27 25 24 24 23 23 24 26 27 29 29 26 23 20 17 15 13 12
0 0 0 0 0 0 0 0 2 4 8 11 13 15 17 17 16 18 18 16 15 17 21 25 25 25 24 23 21 20 19 19 23 24 24 27 30 28 24 21 18 17 15 13
0 0 0 0 0 0 0 0 1 4 7 9 10 11 12 12 13 14 14 15 16 19 22 22 21 21 22 21 19 17 16 17 20 21 21 24 26 25 22 20 19 17 15 14
0 0 0 0 0 0 0 1 2 3 5 7 8 9 10 10 11 12 13 14 16 18 18 18 18 19 20 20 19 17 16 17 19 20 21 22 23 23 21 19 17 16 15 14
0 0 0 0 0 0 0 1 3 4 5 6 8 8 10 11 11 12 13 15 15 14 13 13 15 17 17 17 18 18 18 18 19 18 17 18 21 22 22 19 17 16 15 13
0 0 0 0 0 0 0 1 2 3 5 7 8 8 9 10 11 11 11 13 13 12 10 11 14 15 14 14 16 17 17 16 14 11 11 13 15 18 19 19 18 17 15 13
0 0 0 0 0 0 0 1 2 2 4 6 7 7 8 8 8 8 9 10 11 12 12 13 15 15 14 13 14 14 14 12 9 7 6 7 9 10 13 15 16 15 13 10
0 0 0 0 0 0 0 1 2 3 4 5 5 5 5 6 6 6 7 8 10 11 13 14 15 14 13 12 11 11 11 9 7 5 4 4 4 5 6 7 9 8 6 5
0 0 0 0 0 0 0 0 1 3 4 3 3 3 2 2 3 3 4 5 7 9 11 12 11 10 10 8 7 7 8 7 5 4 3 2 1 1 2 2 2 2 1 1
0 0 0 0 0 0 0 0 1 2 3 2 1 2 1 0 1 2 3 4 4 6 7 8 8 7 7 6 5 4 5 5 4 2 1 1 0 0 0 0 0 0 0 0
0 0 0 0 0 0 0 0 1 2 3 2 1 1 2 2 2 3 4 4 4 3 4 5 6 6 6 4 3 2 3 2 2 1 0 0 0 1 1 0 0 0 0 0
0 0 0 0 0 0 0 0 0 1 2 1 0 1 4 4 4 4 5 6 4 3 3 4 6 6 5 3 1 1 1 1 1 1 0 0 0 1 2 1 0 0 0 0
0 0 0 0 0 0 0 0 0 0 0 0 0 1 4 5 4 3 4 4 4 4 3 4 4 5 4 1 0 0 0 0 0 0 0 0 1 2 2 1 0 0 0 0
0 0 0 0 0 0 0 0 0 0 0 0 0 1 3 3 2 1 1 2 3 3 3 2 2 2 2 1 0 0 0 0 0 0 0 0 1 2 2 1 0 0 0 0
0 0 0 0 0 0 0 0 0 0 0 0 0 1 1 1 0 0 0 0 1 1 1 1 0 1 1 1 0 0 0 0 0 0 0 0 1 2 2 1 0 0 0 0
0 0 0 0 0 0 0 0 0 0 0 0 0 0 0 0 0 0 0 0 0 0 0 0 0 0 1 1 0 0 1 1 0 0 0 0 0 1 1 0 0 0 0 0
0 0 0 0 0 0 0 0 0 0 0 0 0 0 0 0 0 0 0 0 0 0 0 0 0 0 1 1 0 0 1 1 0 0 0 0 0 0 0 0 0 0 0 0
0 0 0 0 0 0 0 0 0 0 0 0 0 0 0 0 0 0 0 0 0 0 0 0 0 0 1 1 0 0 1 1 0 0 0 0 0 0 0 0 0 0 0 0
0 0 0 0 0 0 0 0 0 0 0 1 0 0 0 0 0 0 0 0 0 0 0 0 0 0 1 1 0 0 0 0 0 0 0 0 0 0 0 0 0 0 0 0
0 0 0 0 0 0 0 0 0 0 0 0 0 0 0 0 0 0 0 0 0 0 0 0 0 0 0 0 0 0 0 0 0 0 0 0 0 0 0 0 0 0 0 0
0 0 0 0 0 0 0 0 0 0 0 0 0 0 0 0 0 0 0 0 0 0 0 0 0 0 0 0 0 0 0 0 0 0 0 0 0 0 0 0 0 0 0 0
0 0 0 0 0 0 0 0 0 0 0 0 0 0 0 0 0 0 0 0 0 0 0 0 0 0 0 0 0 0 0 0 0 0 0 0 0 0 0 0 0 0 0 0
0 0 0 0 0 0 0 0 0 0 0 0 0 0 0 0 0 0 0 0 0 0 0 0 0 0 0 0 0 0 0 0 0 0 0 0 0 0 0 0 0 0 0 0
0 0 0 0 0 0 0 0 0 0 0 0 0 0 0 0 0 0 0 0 0 0 0 0 0 0 0 0 0 0 0 0 0 0 0 0 0 0 0 0 0 0 0 0

GEFSNGP_con_prob3kmehi_252.txt.gz
EHI
0 0 0 0 0 0 0 0 0 0 0 0 1 3 7 9 10 10 9 8 6 7 9 11 15 18 19 21 23 23 22 21 21 20 19 19 18 15 13 14 14 12 10 9
0 0 0 0 0 0 0 0 0 0 0 1 3 6 9 11 13 12 10 7 6 7 8 9 12 15 18 20 21 21 21 21 19 18 17 17 16 14 13 14 15 14 12 12
0 0 0 0 0 0 0 0 0 0 1 3 6 8 10 12 14 13 11 8 7 8 9 8 8 10 14 16 17 18 20 20 17 14 14 14 13 12 13 15 16 15 14 14
0 0 0 0 0 0 0 0 0 0 1 3 5 7 8 10 11 11 9 7 6 8 9 8 7 7 9 12 13 15 17 17 15 12 10 10 10 9 10 13 14 14 14 14
0 0 0 0 0 0 0 0 1 1 2 1 2 5 6 7 7 6 6 5 5 6 7 6 5 6 7 9 10 11 12 12 12 11 10 9 9 9 9 11 11 10 11 13
0 0 0 0 0 0 0 0 1 2 2 1 1 3 4 4 4 5 5 5 5 5 6 5 4 5 7 8 8 8 8 8 9 9 9 9 11 12 12 10 8 7 10 12
0 0 0 0 0 0 0 0 0 1 1 0 0 1 2 2 4 5 6 6 4 4 5 5 3 4 6 7 6 7 7 8 8 7 6 8 11 12 12 11 9 8 11 13
0 0 0 0 0 0 0 0 0 0 0 0 0 1 1 2 5 6 6 6 5 4 5 4 3 3 5 6 7 8 8 9 7 5 5 8 9 9 10 10 10 10 12 13
0 0 0 0 0 0 0 0 0 0 0 0 0 1 2 4 5 6 6 6 6 6 5 5 5 5 6 7 8 9 9 9 7 6 6 7 7 8 8 8 9 10 11 12
0 0 0 0 0 0 0 0 0 0 1 1 1 1 2 4 4 4 5 5 6 6 5 5 6 7 7 7 8 9 9 8 8 7 7 7 8 8 8 7 8 9 10 9
0 0 0 0 0 0 0 0 0 0 1 1 1 0 1 2 2 1 2 3 4 4 4 4 5 6 6 6 8 9 9 9 9 8 7 7 7 7 6 6 6 7 8 7
0 0 0 0 0 0 0 0 0 0 0 0 0 0 0 0 0 0 0 1 3 3 3 4 4 4 4 5 7 8 9 9 9 8 6 5 5 4 3 3 2 3 5 5
0 0 0 0 0 0 0 0 0 0 0 0 0 0 0 0 0 1 1 1 2 3 4 4 3 3 4 5 6 7 9 9 7 6 4 4 3 2 2 1 0 0 1 2
0 0 0 0 0 0 0 0 0 0 0 0 0 0 0 0 0 1 1 1 1 3 4 4 2 1 2 3 4 5 7 6 5 4 3 3 2 2 1 1 1 0 0 0
0 0 0 0 0 0 0 0 0 0 0 0 0 0 0 0 0 1 1 0 1 2 4 3 2 1 1 1 1 2 4 3 2 2 2 1 1 1 1 2 1 0 0 0
0 0 0 0 0 0 0 0 0 0 0 0 0 0 0 0 0 0 0 1 1 2 3 3 2 2 1 0 0 1 1 1 0 1 1 0 0 0 1 1 1 0 0 0
0 0 0 0 0 0 0 0 0 0 0 0 0 0 0 0 0 0 0 1 1 1 1 1 1 1 1 0 0 0 0 0 0 0 0 0 0 0 0 0 0 0 0 0
0 0 0 0 0 0 0 0 0 0 0 0 0 0 0 0 0 0 0 1 1 0 0 0 0 0 0 0 0 0 0 0 0 0 0 0 0 0 0 0 0 0 0 0
0 0 0 0 0 0 0 0 0 0 0 0 0 0 0 0 0 0 0 0 0 0 0 0 0 0 0 0 0 0 0 0 0 0 0 0 0 0 0 0 0 0 0 0
0 0 0 0 0 0 0 0 0 0 0 0 0 0 0 0 0 0 0 0 0 0 0 0 0 0 0 0 0 0 0 0 0 0 0 0 0 0 0 0 0 0 0 0
0 0 0 0 0 0 0 0 0 0 0 0 0 0 0 0 0 0 0 0 0 0 0 0 0 0 0 0 0 0 0 0 0 0 0 0 0 0 0 0 0 0 0 0
0 0 0 0 0 0 0 0 0 0 0 0 0 0 0 0 0 0 0 0 0 0 0 0 0 0 0 0 0 0 0 0 0 0 0 0 0 0 0 0 0 0 0 0
0 0 0 0 0 0 0 0 0 0 0 0 0 0 0 0 0 0 0 0 0 0 0 0 0 0 0 0 0 0 0 0 0 0 0 0 0 0 0 0 0 0 0 0
0 0 0 0 0 0 0 0 0 0 0 0 0 0 0 0 0 0 0 0 0 0 0 0 0 0 0 0 0 0 0 0 0 0 0 0 0 0 0 0 0 0 0 0
0 0 0 0 0 0 0 0 0 0 0 0 0 0 0 0 0 0 0 0 0 0 0 0 0 0 0 0 0 0 0 0 0 0 0 0 0 0 0 0 0 0 0 0
0 0 0 0 0 0 0 0 0 0 0 0 0 0 0 0 0 0 0 0 0 0 0 0 0 0 0 0 0 0 0 0 0 0 0 0 0 0 0 0 0 0 0 0
0 0 0 0 0 0 0 0 0 0 0 0 0 0 0 0 0 0 0 0 0 0 0 0 0 0 0 0 0 0 0 0 0 0 0 0 0 0 0 0 0 0 0 0

GEFSNGP_con_prob3kmehi_258.txt.gz
EHI
0 0 0 0 0 0 0 0 0 0 0 1 2 6 10 14 18 20 24 27 27 27 31 36 39 39 35 33 34 37 38 39 39 38 39 40 38 37 40 40 38 37 35 33
0 0 0 0 0 0 0 0 0 0 1 2 5 7 11 15 19 22 23 25 25 27 31 36 40 41 38 35 35 37 39 39 40 41 43 42 41 42 44 41 37 36 35 34
0 0 0 0 0 0 1 1 1 1 1 4 8 9 12 16 19 21 21 20 21 24 28 31 35 37 36 33 33 36 39 39 40 43 44 42 41 43 43 39 36 34 32 31
0 0 0 0 0 0 1 2 2 2 2 4 8 10 12 14 16 17 17 16 16 18 21 23 25 26 27 27 27 30 33 35 36 38 38 38 38 39 38 36 33 30 27 26
0 0 0 0 0 0 1 2 3 3 3 4 6 9 11 12 13 14 14 12 12 12 12 14 17 19 20 21 22 22 24 26 28 30 31 33 34 32 31 31 28 24 22 23
0 0 0 0 0 0 0 2 3 3 3 4 5 8 10 10 11 12 11 9 7 7 8 10 15 17 17 18 18 17 16 18 21 24 27 30 29 25 24 26 24 21 21 22
0 0 0 0 0 0 0 1 2 2 3 4 5 6 8 8 8 9 9 7 7 7 8 10 14 17 18 18 17 15 13 13 17 21 23 24 24 22 22 25 25 25 25 25
0 0 0 0 0 0 1 2 2 3 4 5 5 5 5 4 4 4 5 7 10 10 10 10 13 16 18 18 18 15 12 12 15 18 18 19 21 22 23 26 28 29 29 28
0 0 0 0 0 0 2 3 3 3 4 4 3 2 2 2 3 3 3 6 9 11 11 10 12 14 15 16 18 18 15 14 16 17 17 18 20 21 23 27 28 28 27 25
0 0 0 0 0 0 1 2 2 1 1 2 1 1 1 2 2 3 3 5 8 10 11 10 10 11 11 12 14 16 16 15 15 16 17 19 21 21 23 24 24 25 24 22
0 0 0 0 0 0 0 0 0 0 0 0 1 2 2 1 1 2 3 4 7 9 10 10 9 9 9 8 9 11 14 14 14 15 17 19 19 19 19 17 16 17 17 16
0 0 0 0 0 0 0 0 0 0 0 0 1 1 1 1 0 1 2 4 6 6 8 9 9 8 7 8 8 9 12 14 14 15 16 17 16 14 12 8 6 7 8 8
0 0 0 0 0 0 0 0 0 0 0 0 0 0 0 0 0 0 1 3 4 4 6 8 9 8 8 9 10 10 11 13 14 14 14 14 14 12 9 5 3 2 2 2
0 0 0 0 0 0 0 0 0 0 0 0 0 0 0 0 0 0 1 2 2 3 4 7 8 7 7 10 11 11 10 11 11 11 12 13 14 12 9 6 4 3 1 0
0 0 0 0 0 0 0 0 0 0 0 0 0 0 0 0 0 0 1 1 1 1 3 6 7 6 6 8 10 10 10 10 10 10 12 13 12 10 8 7 6 4 2 1
0 0 0 0 0 0 0 0 0 0 0 0 0 0 1 1 0 0 0 0 0 0 2 4 5 7 7 7 8 9 10 9 9 9 11 11 10 8 7 6 6 5 3 1
0 0 0 0 0 0 0 0 0 0 0 0 0 1 2 2 1 1 1 1 1 0 1 3 5 6 7 7 8 8 8 8 8 9 10 10 10 9 7 6 5 4 2 0
0 0 0 0 0 0 0 0 0 0 0 0 0 1 2 2 1 1 2 2 1 0 0 1 3 5 5 6 6 7 7 6 7 8 8 8 9 8 7 5 3 2 0 0
0 0 0 0 0 0 0 0 0 0 0 0 0 0 1 1 0 1 1 1 1 0 0 1 2 2 3 3 4 4 4 4 4 5 4 4 4 4 4 2 1 0 0 0
0 0 0 0 0 0 0 0 0 0 0 0 0 0 1 1 0 0 0 0 0 0 1 1 2 2 2 1 1 1 1 1 1 2 2 1 1 1 1 1 0 0 0 0
0 0 0 0 0 0 0 0 0 0 0 0 0 0 1 1 0 0 0 0 0 0 0 1 2 3 2 1 0 0 0 0 0 0 1 0 0 0 0 0 0 0 0 0
0 0 0 0 0 0 0 1 1 1 1 1 1 1 1 1 0 0 0 0 0 0 0 0 1 2 2 1 1 0 0 0 0 0 1 0 0 0 0 0 0 0 0 0
0 0 0 0 0 0 0 1 2 2 2 2 2 1 0 0 0 0 0 0 0 0 0 0 0 1 1 1 1 0 0 0 0 0 0 0 0 0 0 0 0 0 0 0
0 0 0 0 0 0 0 1 1 1 1 1 1 1 0 0 0 0 0 0 0 0 0 0 0 0 0 1 1 0 0 0 0 1 1 0 0 0 0 0 0 0 0 0
0 0 0 0 0 0 0 0 0 0 0 0 0 0 0 0 0 0 0 0 0 0 0 0 0 0 0 0 0 0 0 0 0 1 1 0 0 0 0 0 0 0 0 0
0 0 0 0 0 0 0 0 0 0 0 0 0 0 0 0 0 0 0 0 0 0 0 0 0 0 0 0 0 0 0 0 0 1 1 0 0 0 0 0 0 0 0 0
0 0 0 0 0 0 0 0 0 0 0 0 0 0 0 0 0 0 0 0 0 0 0 0 0 0 0 0 0 0 0 0 0 0 0 0 0 0 0 0 0 0 0 0